{"data":{"norad_id":54054,"intl_designator":"2022-136D","name":"STARLINK-5163","alt_names":[],"object_type":"PAYLOAD","status":"ACTIVE","operator":null,"country":"US","launch_date":"2022-10-20","launch_site_code":"AFETR","launch_vehicle":null,"mission":null,"orbit_class":"UNKNOWN","rcs_meters":null,"size_class":null,"mass_kg":null,"dimensions":null,"purposes":["comms"],"wikipedia_slug":null,"has_3d_model":false,"image_url":null,"decayed_at":null,"tle_current":{"epoch":"2026-09-20T03:56:01.055040Z","epoch_age_seconds":115572,"freshness":"FRESH","line1":"1 54054U 22136D   26263.16390110 -.00000602  00000+0 -76473-5 0  9993","line2":"2 54054  53.1602 177.8366 0001029  75.1572 284.9543 15.31704241216387","mean_motion":15.31704241,"eccentricity":0.0001029,"inclination_deg":53.1602,"raan_deg":177.8366,"arg_perigee_deg":75.1572,"mean_anomaly_deg":284.9543,"bstar":-7.6473e-6,"rev_number":21638,"period_min":94.012927656312,"perigee_km":470.02260491257,"apogee_km":471.43210119643,"semimajor_km":6848.8643530545,"source":"CELESTRAK","updated_at":"2026-09-21T09:00:33.076316Z"}}}